GFSNE_sfc_wetblb_276.txt.gz
Wetbulb
35.68 36.08 38.39 39.55 41.53 40.44 40.14 37.99 35.87 32.64 35.63 39.11 38.30 39.58 39.67 41.30 46.10 42.34 43.92 51.32 53.04 52.84 52.49 53.05 53.09 53.59 54.26 56.41 56.88 58.93 59.24 59.79 59.61 59.75 59.28 58.75 58.54 58.63
36.10 36.79 39.49 39.54 40.13 40.95 40.10 39.87 38.17 35.43 32.64 37.32 38.09 39.42 40.85 41.43 44.32 41.95 44.45 46.34 49.88 51.53 52.00 53.01 52.18 52.44 53.09 53.86 54.62 55.98 56.78 56.63 56.33 56.18 55.47 55.50 55.79 56.20
34.22 34.76 37.52 39.13 38.65 40.55 38.51 37.72 38.47 38.12 35.55 35.81 35.45 36.90 38.60 39.78 40.60 41.64 43.31 42.83 43.00 49.08 50.19 50.81 52.15 52.19 52.28 53.28 53.89 53.29 53.36 53.66 53.79 53.18 52.90 52.62 52.21 52.25
32.42 33.99 35.55 38.59 39.65 40.35 40.08 38.87 39.09 39.07 37.53 34.45 35.55 33.86 34.59 36.08 38.17 40.05 41.86 43.97 42.73 46.25 48.39 48.78 49.63 51.54 52.55 53.14 52.92 52.27 52.17 52.34 51.93 51.77 51.65 50.84 50.39 51.89
31.50 31.99 34.36 35.43 36.50 39.77 39.78 36.11 39.61 39.58 39.00 38.01 37.13 37.69 35.65 33.93 34.84 36.66 38.58 40.44 42.27 45.32 46.14 46.96 47.74 49.02 50.53 52.07 52.35 52.03 51.57 51.48 51.11 50.23 49.34 49.23 49.43 49.52
32.13 32.52 34.84 35.65 34.72 39.50 39.97 39.22 39.85 38.60 38.46 38.23 37.40 35.83 34.91 33.31 32.15 33.52 33.25 34.95 35.75 39.99 41.55 44.03 45.86 46.46 47.09 49.44 51.84 51.57 50.93 51.02 49.77 49.26 49.01 48.65 48.35 48.38
31.42 32.19 33.73 39.69 41.73 40.94 38.97 38.24 39.28 36.23 38.09 37.54 36.85 36.21 34.69 33.52 29.38 34.75 34.31 34.96 36.09 37.38 35.61 36.35 37.16 38.19 40.06 42.40 45.78 50.42 50.53 50.67 49.86 49.29 49.03 49.06 48.54 48.47
29.98 31.31 32.79 37.90 39.87 39.95 41.33 40.83 40.58 39.04 32.33 32.32 35.74 35.11 34.85 34.09 34.96 33.99 33.66 33.09 31.91 35.44 35.57 35.37 35.15 35.94 37.37 38.76 43.88 46.63 48.97 50.26 50.25 50.05 50.09 50.12 49.36 48.97
30.02 30.41 32.18 36.42 38.87 35.89 36.91 38.34 36.79 39.53 40.61 35.56 33.42 34.63 32.82 33.09 33.58 32.19 29.84 30.69 32.75 33.92 36.19 34.28 35.67 32.94 35.99 37.91 43.19 43.88 44.47 45.40 46.51 48.36 49.49 49.80 49.68 49.52
30.73 30.89 31.29 34.02 38.68 34.72 34.16 31.79 31.58 30.03 32.49 35.70 36.12 34.77 34.12 33.20 35.36 34.46 32.78 32.36 32.80 33.22 36.41 32.15 34.75 33.81 32.90 35.40 41.46 43.31 44.59 44.41 44.39 45.24 46.73 48.37 48.96 49.31
31.45 31.53 34.46 34.89 41.27 39.98 34.31 32.13 31.50 31.59 36.25 39.05 38.61 39.30 39.95 41.03 37.78 30.60 22.78 25.06 23.71 31.84 36.06 35.02 33.78 34.05 35.53 33.19 35.88 41.02 42.53 43.15 43.63 44.42 45.04 45.92 46.90 47.92
30.22 31.67 38.11 39.03 41.27 41.09 35.25 33.62 32.54 32.49 30.42 28.83 28.77 29.92 31.33 31.10 36.32 30.74 31.19 29.24 29.16 24.65 36.00 33.98 33.86 34.17 32.38 28.35 30.22 33.69 34.27 38.69 41.02 41.74 42.66 43.88 44.98 43.77
29.40 30.15 31.90 40.30 40.49 40.23 39.87 33.86 35.07 32.87 30.68 32.00 32.27 28.58 28.23 28.44 28.62 28.40 29.25 31.95 29.61 29.13 30.51 32.90 33.33 32.72 32.57 31.80 31.90 31.77 32.56 32.93 33.40 35.40 38.99 40.46 41.49 42.71
29.53 30.36 32.23 39.00 39.36 38.83 36.91 39.47 39.17 34.70 29.13 28.13 30.32 31.13 31.38 31.76 32.43 32.60 28.47 28.45 32.38 32.63 32.72 33.52 31.24 31.09 29.82 28.40 28.58 31.31 32.28 32.31 32.32 32.47 33.25 36.83 39.93 41.27
32.02 35.36 37.44 37.29 36.96 33.72 37.45 37.81 35.33 28.96 28.74 27.43 26.13 30.14 32.03 32.41 33.51 31.86 29.80 29.56 28.29 30.26 34.02 34.02 32.62 32.31 31.64 29.74 29.35 29.86 31.18 32.48 34.32 33.76 32.29 32.31 32.97 33.24
32.59 30.09 34.15 33.91 34.24 32.86 30.21 29.78 29.02 29.00 29.70 26.97 26.08 26.52 28.63 32.12 33.06 32.81 31.54 32.10 31.04 31.50 30.93 31.44 30.95 31.77 30.93 31.65 31.37 30.38 31.61 29.41 31.30 32.12 32.30 31.85 32.29 33.01
30.90 28.67 28.23 28.77 28.33 28.02 27.78 27.65 28.08 28.25 27.44 27.80 27.44 26.90 27.68 28.35 29.73 33.50 32.83 32.27 30.72 30.75 31.49 33.39 33.88 33.91 32.52 31.73 29.83 30.78 31.00 31.51 32.64 32.59 32.13 31.00 32.05 32.56
28.34 26.71 26.29 27.09 27.53 28.11 28.01 27.45 27.00 27.97 26.67 27.80 27.64 27.49 28.05 27.86 28.31 29.86 31.67 32.17 31.76 31.91 31.15 32.16 32.26 32.53 32.58 32.96 35.66 31.08 31.82 31.81 32.98 33.36 32.89 31.03 30.70 33.01
27.01 26.28 26.81 26.74 26.97 27.71 27.90 27.56 27.34 27.56 26.52 26.66 26.75 26.87 27.92 28.38 28.73 28.21 28.81 29.30 29.73 30.02 30.53 32.60 32.47 31.31 28.81 27.49 31.98 37.74 32.47 32.88 32.93 32.33 32.42 31.57 30.41 31.51
27.76 26.86 26.68 27.12 27.24 27.12 28.40 28.29 28.31 28.27 26.87 26.47 26.26 26.68 26.61 27.43 27.22 27.15 27.48 27.22 27.69 28.77 29.24 30.02 30.26 30.45 29.37 28.88 29.44 32.57 36.72 33.60 33.11 32.17 32.36 33.43 33.96 36.43
27.46 27.42 27.61 27.43 27.65 27.46 28.28 30.06 28.60 28.26 28.92 26.29 26.03 26.00 26.15 25.73 25.97 26.19 26.30 30.44 30.37 27.44 26.46 27.19 29.29 35.05 33.74 33.17 30.52 29.91 33.26 36.75 36.22 33.83 33.52 32.26 31.34 31.58
27.48 27.30 27.75 27.39 27.60 27.62 27.78 28.77 29.59 28.49 27.82 26.72 26.54 26.35 26.52 26.06 26.00 26.25 26.40 26.13 26.43 26.73 26.82 28.40 30.22 30.62 30.24 29.72 28.78 28.78 29.47 31.92 34.18 35.23 36.77 35.59 32.10 29.48
27.04 27.12 27.17 27.27 27.68 27.69 27.79 27.91 28.38 29.38 28.89 27.85 28.88 28.65 27.71 26.69 26.74 26.86 26.63 26.32 26.24 26.25 26.89 26.85 28.86 29.80 29.38 29.15 29.99 29.44 29.32 28.94 30.33 29.79 30.66 35.42 36.04 36.24

GFSNE_sfc_wetblb_279.txt.gz
Wetbulb
39.61 38.77 39.87 40.76 40.79 42.05 41.94 39.52 37.25 34.18 35.66 38.41 39.01 43.65 44.59 46.56 47.40 48.55 49.62 52.86 53.78 53.55 53.87 53.40 52.64 53.08 54.02 55.94 57.27 57.34 58.97 60.41 60.53 61.08 61.29 61.10 60.55 60.66
38.45 38.70 39.49 39.73 40.63 41.37 41.55 41.47 41.06 38.16 35.32 39.13 39.49 41.15 43.16 44.42 45.89 46.85 47.82 48.30 51.11 52.17 52.22 52.83 52.72 52.06 53.01 53.81 54.80 56.05 56.72 57.74 58.15 57.50 57.32 57.38 57.62 57.45
37.74 37.20 38.09 38.82 39.93 40.79 41.12 41.20 40.47 40.00 36.82 38.84 41.24 41.89 42.03 42.51 44.18 45.88 46.86 47.70 48.48 49.89 50.17 50.60 51.17 52.47 52.15 52.85 53.42 53.84 54.39 55.09 54.37 53.91 52.98 53.38 53.89 53.45
36.39 36.76 37.69 38.96 38.48 40.78 40.65 41.29 41.30 40.84 38.89 36.43 38.81 40.63 41.00 42.27 42.90 42.38 43.01 45.24 45.93 47.67 48.82 48.76 49.00 50.29 51.66 52.35 53.33 52.40 52.13 52.47 52.52 51.65 51.77 51.88 51.42 52.27
36.41 36.78 37.66 39.45 38.77 40.48 40.18 39.65 40.89 41.35 40.29 39.01 38.09 40.44 41.12 41.35 41.66 42.63 42.20 43.06 43.30 44.51 45.70 46.67 47.96 48.16 48.75 50.35 52.49 52.36 52.10 51.80 51.65 51.43 50.04 49.53 50.17 50.24
36.76 36.94 37.49 39.25 40.01 39.48 38.98 38.78 40.88 40.47 40.33 39.79 38.68 37.79 38.12 39.74 40.01 38.00 38.42 39.41 40.70 42.28 43.25 44.05 45.35 45.57 46.45 47.62 49.13 51.91 51.16 51.36 50.16 49.53 49.03 48.71 48.32 48.31
37.09 36.97 36.87 40.86 43.39 41.90 40.44 39.55 38.86 38.98 38.48 38.59 37.68 37.72 38.70 37.90 36.10 37.44 36.96 36.44 38.13 37.60 38.73 41.47 43.13 44.19 45.04 45.16 45.91 48.05 50.17 51.45 51.00 50.10 49.71 49.97 49.06 48.66
35.87 36.88 37.72 39.20 40.53 41.91 41.96 41.40 40.28 38.81 36.32 36.10 35.51 34.90 36.02 35.34 36.48 35.81 36.29 35.40 33.84 40.43 38.51 37.02 41.28 41.33 43.11 44.09 44.11 45.56 46.87 49.12 50.48 50.51 50.50 50.45 49.74 49.02
36.36 36.44 36.83 38.91 40.32 39.05 38.76 39.24 38.59 39.16 39.49 37.98 34.09 34.69 33.66 34.21 35.23 32.94 32.60 32.80 34.21 36.60 37.38 35.85 38.91 39.29 42.38 42.79 42.95 43.93 45.13 45.56 46.24 47.10 48.95 49.94 49.82 49.82
36.40 36.58 37.55 39.34 40.50 37.68 37.21 38.05 37.18 37.88 38.34 38.68 38.65 37.50 35.97 33.76 37.54 37.01 34.39 32.45 34.76 36.97 38.53 33.07 37.88 37.54 40.88 42.30 42.46 43.09 43.85 44.46 45.20 45.36 46.12 47.42 48.68 49.30
35.97 36.68 38.95 39.89 41.98 41.73 38.39 37.31 37.12 37.65 37.18 37.70 37.65 38.00 38.38 38.79 38.61 38.21 36.48 34.05 32.21 35.17 38.37 35.81 37.10 37.03 39.53 40.33 41.73 40.11 41.34 42.85 43.60 43.89 44.41 45.37 46.05 47.19
35.84 36.02 38.04 40.43 41.53 41.17 38.41 37.32 33.32 34.36 35.92 34.65 35.39 36.21 36.04 35.97 35.82 36.56 35.86 32.37 31.18 32.27 36.99 34.70 35.13 36.28 34.30 39.87 40.35 40.58 40.69 40.04 40.35 40.54 40.88 41.69 43.06 44.02
34.51 34.96 36.65 40.02 40.33 40.11 39.76 38.69 37.64 37.09 35.22 35.16 35.60 35.74 35.57 35.29 36.07 34.85 35.33 33.39 31.36 30.93 36.22 35.14 33.26 32.87 32.35 32.80 36.14 37.36 37.98 38.61 38.91 38.87 38.68 39.62 40.49 41.15
34.29 35.28 37.17 38.89 38.69 38.11 38.13 39.34 38.87 35.68 35.28 34.65 34.03 34.50 34.30 34.53 35.32 35.80 36.35 35.72 35.39 33.83 35.30 34.68 32.38 32.16 31.19 30.55 29.71 34.78 35.54 36.55 36.83 37.16 37.87 38.49 38.92 39.71
36.34 36.63 37.33 36.94 36.46 34.92 36.37 36.64 34.80 34.66 34.47 33.69 32.76 32.97 34.02 35.18 36.15 35.88 35.40 35.76 35.78 35.98 35.96 36.04 34.37 33.41 32.54 30.87 30.50 31.44 32.52 34.75 35.80 35.08 36.63 37.27 37.20 37.94
36.58 34.08 35.28 34.97 34.93 34.01 33.37 33.17 32.97 34.02 33.49 32.74 32.72 33.36 34.11 34.31 34.63 36.15 34.83 35.07 34.31 35.60 37.82 36.47 35.18 33.81 32.15 32.57 32.41 31.70 33.21 31.46 35.31 35.59 35.09 34.76 35.29 36.16
36.09 33.64 33.05 32.79 32.61 32.39 32.31 32.53 32.63 32.78 31.50 32.15 32.25 32.29 32.60 33.17 33.39 34.85 35.00 34.88 33.06 33.22 34.12 36.16 37.97 36.67 34.97 33.75 31.74 32.70 32.99 34.00 35.86 35.02 34.56 33.54 35.13 36.06
33.73 31.59 31.40 31.63 31.51 31.55 31.32 31.17 31.91 31.59 31.25 31.47 31.94 32.04 31.66 31.79 32.22 33.54 33.65 33.05 32.14 32.81 33.22 34.40 34.34 32.75 33.27 34.44 36.64 32.88 34.28 34.13 35.21 34.91 34.20 32.17 32.28 34.71
32.21 31.68 31.15 31.31 31.35 31.72 31.82 31.77 30.79 31.60 31.80 31.65 31.18 31.48 31.67 31.99 31.98 31.95 32.26 32.23 31.74 32.22 32.85 33.73 33.11 31.37 28.04 26.61 34.12 38.25 34.33 34.70 34.71 34.04 33.92 33.07 31.98 34.39
31.96 31.22 30.85 31.43 31.62 31.53 31.81 31.96 32.18 32.06 32.12 31.57 31.42 31.49 31.45 30.89 30.50 30.90 31.34 30.84 31.24 31.81 31.57 32.44 32.13 31.59 30.15 29.32 30.34 34.41 36.59 34.57 33.87 33.20 33.36 34.53 35.00 37.23
31.12 31.28 31.37 31.60 31.62 31.85 32.12 32.34 32.20 31.95 32.26 31.35 31.19 30.90 31.15 30.89 30.32 30.72 31.24 31.22 31.37 30.72 29.50 30.13 32.03 34.70 34.67 34.63 30.81 32.34 34.94 36.39 36.30 34.41 34.25 32.92 31.70 32.69
31.08 30.96 31.23 31.58 31.54 31.72 32.10 32.17 32.07 32.05 31.79 31.31 30.26 30.78 30.93 30.99 30.24 30.13 30.61 30.30 30.33 30.26 30.31 31.81 33.16 33.61 33.11 31.44 30.83 31.69 32.83 34.67 36.12 35.74 35.80 35.52 33.02 30.28
29.77 29.95 30.58 31.24 31.51 31.80 32.01 31.94 31.57 31.27 31.35 30.74 31.03 31.24 31.41 30.43 30.95 30.68 30.56 30.73 30.35 30.23 30.33 30.24 32.05 33.07 32.41 32.11 31.87 32.05 31.92 32.32 33.03 33.08 34.66 36.21 35.60 35.74

GFSNE_sfc_wetblb_285.txt.gz
Wetbulb
40.84 39.77 39.31 40.58 41.55 40.85 41.88 41.46 38.36 34.93 35.85 40.19 39.79 42.93 43.70 44.60 47.21 47.38 48.43 53.19 53.81 53.82 53.82 53.53 53.91 54.10 54.28 55.27 56.72 57.83 58.45 58.94 58.38 59.28 59.64 59.83 61.35 62.61
41.14 40.07 40.18 40.13 40.84 42.02 41.72 41.83 42.05 39.35 36.00 40.58 41.34 43.05 42.90 43.98 46.09 46.17 46.70 50.12 51.82 52.03 51.85 52.61 53.39 53.63 53.93 54.58 55.39 56.19 57.65 57.89 58.78 59.52 59.93 60.44 61.34 61.76
41.07 40.40 40.01 40.46 40.17 41.95 42.00 41.32 41.39 41.28 37.32 39.40 41.96 42.85 42.52 41.94 43.38 44.64 45.76 47.08 48.06 49.98 50.34 50.58 50.98 51.75 53.30 53.74 53.31 53.76 54.67 54.62 54.34 54.75 55.55 55.71 57.52 58.00
40.19 40.00 39.55 40.28 40.78 41.60 42.01 40.78 41.17 41.42 40.04 37.56 40.22 40.65 41.27 42.90 42.89 42.82 43.64 45.06 45.64 46.86 48.44 49.08 49.38 49.49 50.52 51.55 53.12 52.60 52.99 53.64 53.44 53.21 53.09 53.81 53.73 53.38
40.38 39.95 39.97 40.08 39.71 40.95 40.81 40.09 41.23 41.17 41.09 40.38 39.38 41.63 41.45 42.24 41.13 41.96 42.14 42.60 44.28 45.75 46.27 47.27 47.54 47.77 48.32 48.90 50.03 51.48 52.17 51.75 52.75 52.06 51.95 52.09 52.04 52.04
41.17 40.68 40.36 40.29 40.10 41.46 40.47 39.78 39.81 39.41 40.09 39.31 39.42 39.71 40.28 40.67 40.47 37.83 37.21 40.07 40.66 41.74 44.04 45.23 46.31 46.89 46.70 47.49 48.17 48.09 48.97 51.10 50.93 50.70 50.27 50.34 49.88 49.96
41.48 40.75 41.05 41.49 43.02 43.24 40.82 39.64 37.99 38.77 38.24 36.62 36.02 35.81 36.66 36.78 36.09 37.90 37.14 38.79 39.87 39.87 39.14 41.03 41.90 43.41 45.56 46.67 46.81 46.16 46.71 48.02 49.94 51.01 50.86 50.04 49.66 48.25
39.97 39.58 40.65 41.67 42.29 43.24 42.67 42.23 40.50 37.09 35.99 36.33 34.99 33.92 34.84 35.32 35.68 34.46 34.61 33.82 32.54 40.57 37.20 36.62 40.91 40.32 41.74 43.96 44.85 44.94 45.29 46.29 46.79 47.90 49.57 50.99 50.19 48.98
40.25 38.90 39.05 40.64 41.96 41.85 42.04 42.32 40.67 40.95 40.50 38.04 35.59 36.38 34.33 34.44 36.00 33.00 32.36 31.99 32.74 34.57 37.23 34.40 39.28 37.83 40.24 42.42 43.70 43.41 44.02 44.43 44.78 45.66 46.35 47.27 48.54 49.45
40.64 39.22 38.83 39.40 41.36 41.58 40.91 38.97 38.43 38.52 39.25 38.25 37.10 36.37 36.85 34.55 38.11 37.43 34.24 33.02 34.31 37.26 39.23 33.19 37.87 36.27 38.79 40.48 43.59 42.82 42.22 42.60 43.35 44.28 44.88 45.50 45.89 46.42
40.78 39.88 38.94 39.15 41.93 42.03 39.56 38.09 37.63 38.55 40.89 38.49 38.72 38.84 38.89 38.50 38.37 37.64 35.32 34.19 31.64 33.10 37.18 35.44 35.17 35.60 37.16 38.21 40.22 41.39 41.56 41.49 41.56 42.10 42.55 42.85 42.95 43.42
40.90 39.89 39.29 39.60 41.29 41.09 39.14 38.93 34.04 34.66 38.73 38.15 38.33 37.87 38.00 37.39 37.63 36.99 35.84 32.30 32.34 31.98 37.51 34.59 33.75 34.04 32.26 38.09 37.99 38.35 38.32 40.53 40.79 41.02 41.02 41.29 41.41 39.07
39.35 38.52 38.87 39.85 39.70 39.21 39.04 39.12 37.39 38.85 38.16 38.60 39.21 38.54 37.27 37.50 37.22 37.24 36.17 34.44 31.90 31.42 35.76 34.78 33.30 33.24 32.30 32.73 34.88 35.81 36.23 36.67 36.97 38.09 40.43 40.83 40.94 39.64
38.28 38.91 38.50 38.72 38.66 38.22 37.57 37.81 38.00 38.17 38.17 37.66 37.71 37.57 37.44 38.08 38.73 37.99 37.73 36.97 36.42 34.75 35.92 35.79 33.27 32.68 31.45 30.90 30.90 33.89 35.38 35.61 35.99 35.15 36.06 39.09 40.48 40.96
39.58 38.94 37.95 37.92 38.00 37.95 37.05 36.96 37.31 36.42 35.82 35.20 34.88 35.46 36.29 37.43 38.17 38.61 38.09 37.65 37.44 37.44 38.06 37.28 35.45 34.80 34.26 32.05 30.55 31.59 32.49 34.28 35.90 35.18 36.19 35.81 35.16 35.61
40.22 39.36 37.99 37.49 37.81 37.07 37.26 37.07 36.49 35.92 34.37 34.39 34.71 35.98 36.88 36.69 35.98 36.85 35.54 35.97 34.95 35.11 38.31 39.09 37.34 35.73 33.81 33.94 33.40 32.40 33.24 31.06 34.32 34.82 35.38 35.94 36.43 36.68
38.33 37.84 37.01 36.80 36.40 36.43 36.74 36.45 36.44 35.59 34.21 34.39 34.32 34.58 34.93 35.48 35.39 36.44 35.88 34.85 32.91 32.58 33.11 36.21 37.52 37.20 36.39 35.03 31.70 32.47 32.60 32.60 34.58 35.29 35.64 34.99 35.59 35.46
36.15 35.63 35.20 35.54 35.07 34.79 34.80 35.52 36.71 35.33 34.29 34.26 33.87 33.79 32.77 33.22 33.51 34.72 35.03 33.01 31.91 31.94 31.90 33.27 33.62 33.10 33.35 34.87 37.76 32.61 34.00 33.80 35.05 34.97 34.58 32.81 33.19 35.51
35.07 34.93 34.50 34.70 34.75 34.78 34.72 34.65 34.36 35.87 35.46 34.32 33.67 33.47 33.37 33.50 33.05 32.67 32.82 33.00 32.36 32.06 32.68 33.05 32.16 30.66 28.79 27.68 32.96 39.02 33.67 34.24 34.51 34.11 34.30 33.62 32.96 34.21
34.73 34.00 33.86 34.39 34.52 34.30 34.64 34.42 34.80 35.48 35.16 34.19 33.68 33.21 32.94 32.45 32.25 31.63 31.63 31.39 31.35 31.52 31.53 32.08 31.61 30.86 28.91 29.21 29.26 32.23 36.47 33.67 33.95 33.69 33.12 34.42 35.45 38.11
34.08 33.94 34.42 34.33 34.27 34.57 34.96 35.33 34.93 34.70 34.51 33.94 33.21 32.81 32.86 32.44 31.65 31.89 31.78 33.26 32.68 31.13 29.91 30.13 31.74 37.25 35.28 34.75 31.07 31.08 35.00 37.06 36.00 33.55 33.80 32.39 29.62 29.15
32.85 32.68 33.44 34.16 34.36 34.49 34.70 34.89 34.54 34.53 34.27 33.65 33.20 33.26 33.14 32.65 31.59 31.32 31.24 30.57 30.41 30.49 30.49 31.90 33.98 34.49 33.42 31.38 29.72 30.38 32.20 34.76 36.58 37.12 37.69 36.47 31.81 27.25
31.20 31.82 32.36 33.85 34.40 34.27 34.19 34.20 33.75 33.67 33.59 32.79 33.36 33.68 33.42 31.76 32.11 32.03 31.79 31.56 30.81 30.05 30.29 30.45 31.68 32.33 32.32 31.77 31.36 31.25 31.97 31.46 31.51 31.35 32.33 37.58 38.40 38.43

GFSNE_sfc_wetblb_291.txt.gz
Wetbulb
34.83 34.37 34.08 37.04 38.40 36.58 38.31 38.63 36.74 32.74 32.93 37.03 35.13 39.53 39.48 41.23 45.99 45.18 46.26 49.08 51.92 51.96 52.93 52.50 53.34 54.38 55.53 57.22 58.14 58.90 59.74 59.61 58.86 59.69 58.73 58.09 61.20 61.82
36.38 34.56 34.52 36.05 35.92 36.44 37.06 38.31 36.40 36.41 33.48 35.15 37.72 40.37 39.06 41.60 43.89 43.29 43.79 45.86 48.72 50.99 50.95 51.20 52.45 52.71 53.71 54.95 55.70 55.92 56.92 57.86 59.45 60.12 61.20 60.84 60.71 62.02
35.54 35.02 35.50 35.88 37.44 36.29 38.57 38.70 35.10 35.42 34.09 34.69 39.87 41.11 39.33 38.97 39.03 40.55 41.70 42.07 43.19 49.00 49.83 49.86 50.31 52.01 53.22 53.22 53.55 54.35 54.64 54.81 56.30 56.72 57.42 58.66 59.26 59.43
36.58 34.91 35.20 37.87 34.88 36.34 39.64 38.48 35.49 35.10 36.36 34.14 36.19 36.33 38.74 38.21 37.13 36.93 38.59 41.13 40.65 44.32 47.74 48.41 49.19 49.82 50.99 51.58 52.09 52.62 52.60 52.70 53.98 54.97 54.86 55.09 55.76 56.49
36.68 35.57 35.47 34.71 33.97 35.56 40.06 38.47 37.78 38.14 37.71 36.32 33.93 34.33 34.91 34.44 34.03 34.96 35.74 35.63 40.20 41.04 43.36 45.40 47.19 49.12 49.50 49.09 49.47 50.16 51.26 52.12 51.16 51.73 53.05 53.21 53.48 53.59
38.12 36.75 35.35 35.09 34.76 37.03 39.72 38.67 38.08 37.28 36.40 33.39 32.81 33.73 35.20 33.39 32.50 33.54 32.64 33.50 34.87 36.89 39.35 42.02 43.75 45.00 47.21 47.35 47.64 47.78 48.43 49.71 51.35 51.36 49.77 50.45 50.62 50.89
37.73 36.65 35.96 38.63 42.88 42.31 41.16 39.31 38.34 37.12 36.40 35.13 34.50 33.68 34.95 33.47 31.51 33.73 32.36 33.00 31.63 32.15 32.07 33.83 35.39 36.03 38.75 41.98 45.10 46.12 46.56 47.15 48.25 49.52 50.59 50.83 49.58 48.99
36.65 34.85 34.88 38.63 38.94 43.04 43.78 43.16 41.17 37.92 36.45 35.30 33.64 31.91 33.22 33.80 33.77 33.72 32.53 31.26 28.24 31.21 31.54 30.14 33.89 33.22 35.56 37.55 44.58 44.72 44.42 44.93 45.49 46.50 47.74 48.67 49.79 50.52
36.71 33.77 34.57 37.21 37.71 36.74 40.91 41.12 40.24 41.05 40.89 35.50 32.68 33.41 32.69 33.52 34.41 32.20 32.24 31.92 31.62 33.71 34.27 24.96 31.36 30.75 33.94 37.13 43.44 42.87 43.47 43.78 44.32 45.24 45.93 46.44 46.92 47.52
35.87 33.66 32.96 33.45 35.50 38.27 35.21 33.92 34.41 34.50 36.24 37.54 36.02 35.73 35.62 33.61 35.85 35.73 33.56 32.49 33.44 34.62 36.37 30.78 33.72 26.05 31.03 35.93 42.10 41.94 42.07 42.05 42.48 42.60 43.03 43.51 43.82 44.37
35.77 34.68 33.73 33.81 39.55 41.21 34.32 32.55 32.05 32.60 38.97 41.35 40.25 39.82 39.63 39.60 38.52 33.13 31.42 31.82 30.50 32.01 35.33 32.03 32.91 26.42 32.94 34.65 34.10 39.85 39.87 40.56 40.64 41.62 42.26 42.28 41.89 42.03
35.44 35.50 39.24 36.59 40.62 40.38 33.05 30.35 26.76 26.75 31.23 32.24 32.78 34.23 36.04 35.43 38.33 35.17 34.47 31.04 30.65 26.25 32.50 32.30 32.37 32.08 24.80 27.91 30.34 31.71 32.20 38.59 39.03 39.66 40.17 40.69 41.06 34.65
35.47 33.70 33.39 39.45 39.88 39.55 38.74 31.47 31.01 33.59 33.47 29.84 29.95 29.19 31.01 31.62 31.74 31.91 32.60 33.31 31.76 30.83 34.58 34.54 32.47 32.08 31.50 30.67 31.52 30.28 30.73 31.37 31.76 33.39 37.86 39.46 40.25 39.25
35.20 33.95 33.47 39.43 39.08 39.05 36.77 38.47 38.78 35.14 29.60 29.37 28.72 26.29 26.19 25.64 27.24 30.17 32.18 32.52 33.10 31.72 32.63 33.69 29.97 29.96 28.61 25.06 23.76 28.01 30.11 31.34 31.83 31.73 32.62 36.76 38.35 38.87
37.31 36.63 40.25 40.16 38.60 35.77 37.91 38.47 36.56 29.59 27.72 27.10 27.10 27.71 28.26 29.16 29.46 31.31 32.63 32.35 32.26 32.94 35.64 32.51 31.50 29.28 28.45 25.38 26.11 27.23 29.65 29.87 32.07 33.20 34.08 34.14 34.48 35.09
37.26 34.18 37.16 38.30 39.04 36.98 34.70 32.44 30.76 29.76 27.96 26.96 26.58 27.24 29.01 29.70 29.11 29.32 28.82 29.01 28.49 28.93 31.46 32.23 31.69 30.24 27.89 27.87 27.17 27.06 28.05 27.99 30.13 32.21 33.82 33.26 36.10 36.67
35.24 32.02 30.14 29.45 29.06 28.97 29.47 30.29 29.62 29.05 27.99 27.37 26.73 26.94 28.01 28.77 28.89 29.21 29.16 27.89 26.39 26.25 27.01 29.65 30.94 30.98 30.67 29.10 25.05 27.57 26.84 27.99 33.16 33.86 33.46 30.30 31.86 33.36
31.41 28.72 27.78 27.73 27.77 27.72 27.73 27.83 28.94 31.24 29.02 28.29 27.21 26.99 27.33 27.95 28.75 29.48 29.67 27.02 26.38 26.68 26.32 27.20 27.58 27.85 28.33 29.52 32.84 27.80 27.81 30.78 33.72 33.87 32.29 29.48 28.52 30.99
29.35 27.94 27.45 27.80 28.06 28.29 27.86 27.86 28.12 28.80 29.36 28.59 27.52 27.12 28.07 28.45 28.58 28.36 28.47 28.56 27.93 26.76 26.98 27.42 26.71 23.60 25.04 25.74 28.12 35.62 29.70 30.98 30.15 31.90 33.81 32.93 30.90 30.06
28.69 27.83 27.78 28.16 28.30 28.10 28.43 28.48 28.94 29.47 29.23 28.93 28.03 27.77 27.25 27.87 27.82 27.12 26.79 26.57 26.28 26.43 26.25 26.16 26.16 25.13 29.06 28.50 29.16 30.42 36.14 32.42 32.43 32.12 32.00 31.42 31.04 35.81
28.65 28.26 28.61 28.57 28.49 28.72 29.47 30.03 29.76 29.59 29.17 28.62 28.45 28.02 27.79 27.10 26.50 26.27 26.01 30.86 29.64 25.59 24.03 25.16 26.80 35.26 32.33 33.60 29.96 30.03 32.90 36.48 35.83 33.18 32.77 27.16 28.98 27.27
28.40 28.48 28.62 28.72 28.82 29.15 29.27 29.62 29.17 29.23 28.37 28.55 28.03 28.13 28.58 27.65 26.54 25.98 25.82 25.50 25.15 24.70 24.60 26.17 28.34 29.12 28.66 28.29 28.15 29.35 30.57 32.94 34.70 35.87 35.97 34.87 29.57 23.65
28.28 28.33 28.56 28.77 29.12 29.18 29.05 28.91 28.50 28.57 28.73 30.90 28.46 28.41 28.76 27.55 27.26 26.67 26.64 26.41 25.94 25.87 25.69 25.75 26.48 26.96 27.09 25.17 29.47 28.93 29.49 29.80 30.12 27.20 28.47 35.82 37.08 37.83